User: anonymous
Location: Salamanca
(40.9670°N, 5.6500°W)
Time: 10:24:27
(UTC+02:00)
Language:

Cosmos 1633 Rocket - Orbit

View from above orbital plane
View from above orbital plane
View from above satellite
View from above satellite

Ground track
Ground track

The orbit data is extracted from the following two-line orbital elements,

1 15593U 85020B   14274.78646237  .00000582  00000-0  67416-4 0  7798
2 15593 082.5351 108.2809 0013069 071.3566 060.4248 14.83758542597624
Epoch (UTC): 01 October 2014 18:52:30
Eccentricity: 0.0013069
inclination: 82.5351°
perigee height: 608 km
apogee height: 626 km
right ascension of ascending node: 108.2809°
argument of perigee: 71.3566°
revolutions per day: 14.83758542
mean anomaly at epoch: 60.4248°
orbit number at epoch: 59762

The dashed part of the orbit path shows where the satellite is in the earth's shadow,  

DLR